Regional Weather Roundup
Issued by NWS

Home | Current Version | Previous Version | Text Only | Print | Product List | Glossary On
Versions: 1 2 3 4 5 6 7 8 9 10 11 12 13 14 15 16 17 18 19 20 21 22 23 24 25 26 27 28 29 30 31 32 33 34 35 36 37 38 39 40 41 42 43 44 45 46 47 48 49 50
000
ASUS45 KABQ 250210
RWRNM
NEW MEXICO REGIONAL WEATHER ROUNDUP
NATIONAL WEATHER SERVICE ALBUQUERQUE NM
800 PM MDT SAT SEP 24 2016

NOTE: "FAIR" MEANS FEW OR NO CLOUDS BELOW 12,000 FEET AGL WITH NO
       SIGNIFICANT WEATHER OR OBSTRUCTIONS TO VISION.

      THIS PRODUCT IS RELEASED AS TWO VERSIONS.  ONE VERSION NEAR
      THE TOP OF THE HOUR CONTAINING PRELIMINARY DATA FROM ALBUQUERQUE
      AND OTHER STATIONS.  A FINAL VERSION WITH ADDITIONAL DATA IS
      ISSUED ABOUT 10 MINUTES AFTER THE HOUR.

NMZ501-503-504-510>518-250300-
NORTHWEST PLATEAU/NORTHCENTRAL MOUNTAINS

CITY           SKY/WX    TMP DP  RH WIND       PRES   REMARKS
FARMINGTON     FAIR      57  32  38 NW12      30.19S
LOS ALAMOS     FAIR      55  29  37 NW10      30.22R
SANTA FE       FAIR      58  32  37 N9        30.16R
TAOS           FAIR      54  28  37 W5        30.21R
ANGEL FIRE     FAIR      44  32  61 CALM      30.28R

$$
NMZ402-403-502-505>509-250300-
WESTCENTRAL MOUNTAINS/SOUTHWEST MOUNTAINS

CITY           SKY/WX    TMP DP  RH WIND       PRES   REMARKS
GALLUP         FAIR      56  31  38 NE14      30.23R
SILVER CITY    FAIR      62  32  31 NW8       30.10S

$$
NMZ407-409-411-412-250300-
SOUTHERN DESERTS

CITY           SKY/WX    TMP DP  RH WIND       PRES   REMARKS
DEMING         FAIR      71  34  25 NW8       30.03R
LAS CRUCES     FAIR      71  35  27 W7        30.04R
HOLLOMAN AFB   MOCLDY    76  38  25 N1        29.99R
ALAMOGORDO     FAIR      68  37  32 NE3       30.01R
T OR C         FAIR      72  36  26 NW3       30.03R

$$
NMZ519>523-250300-
CENTRAL VALLEYS/CENTRAL HIGHLANDS

CITY           SKY/WX    TMP DP  RH WIND       PRES   REMARKS
ALBUQUERQUE    FAIR      64  31  28 NW15G26   30.13R
DOUBLE EAGLE   CLEAR     57  32  38 NW13      30.16R
MORIARTY ARPT  FAIR      53  30  41 NW9       30.17S
CLINES CORNERS FAIR      51  31  46 W13       30.19R
BELEN          NOT AVBL
SOCORRO        FAIR      67  23  19 NW15G22   30.08R

$$
NMZ524>526-539-540-250300-
SOUTHCENTRAL MOUNTAINS

CITY           SKY/WX    TMP DP  RH WIND       PRES   REMARKS
RUIDOSO        FAIR      59  25  27 NW7       30.19R

$$
NMZ527>531-250300-
NORTHEAST HIGHLANDS/NORTHEAST PLAINS

CITY           SKY/WX    TMP DP  RH WIND       PRES   REMARKS
LAS VEGAS      FAIR      55  29  36 N13G23    30.14R
RATON          FAIR      56  31  38 N9        30.11R
CLAYTON        FAIR      55  38  52 NW10      30.03R

$$
NMZ532>537-250300-
EASTCENTRAL PLAINS

CITY           SKY/WX    TMP DP  RH WIND       PRES   REMARKS
TUCUMCARI      FAIR      66  26  22 SW7       29.98R
CANNON AFB     FAIR      70  31  24 W2        30.01R
CLOVIS AIRPORT FAIR      64  37  36 W6        30.01R

$$
NMZ028-029-538-250300-
SOUTHEAST PLAINS

CITY           SKY/WX    TMP DP  RH WIND       PRES   REMARKS
ROSWELL        FAIR      73  48  41 N5        29.95R
ARTESIA        FAIR      68  54  60 SW8       29.95R
CARLSBAD       FAIR      70  48  45 W10       29.94R
HOBBS          FAIR      68  61  77 SE6       30.00R


$$



USA.gov is the U.S. government's official web portal to all federal, state and local government web resources and services.